CAPE
4 6 nan nan nan nan nan nan nan nan nan nan nan nan nan nan nan nan nan nan nan nan nan nan nan nan nan nan nan nan nan nan nan nan 1 2 2 2 3 4 4 6 9 12 12 13 15 17 17 18 18 18 20 20 23 27 27 28 32 39 39 45 52 65 65 72 78 79 80 80 85 87 85 85 83 77 80 80 85 88 88 93 97 102 102 104
3 6 nan nan nan nan nan nan nan nan nan nan nan nan nan nan nan nan nan nan nan nan nan nan nan nan nan nan nan nan nan nan nan nan 0 1 1 1 2 4 4 6 9 10 10 11 12 15 15 16 17 16 18 18 20 24 24 27 30 37 37 41 48 59 59 62 74 77 78 78 77 76 74 74 68 68 74 74 80 89 89 90 94 100 100 105
1 1 nan nan nan nan nan nan nan nan nan nan nan nan nan nan nan nan nan nan nan nan nan nan nan nan nan nan nan nan nan nan nan nan nan 0 1 1 2 5 5 7 7 8 8 8 9 11 11 14 15 16 18 18 20 22 22 26 30 34 34 37 44 49 49 55 62 64 66 66 68 65 61 61 61 68 75 75 80 82 82 84 87 90 90 94
nan nan nan nan nan nan nan nan nan nan nan nan nan nan nan nan nan nan nan nan nan nan nan nan nan nan nan nan nan nan nan nan nan nan nan nan 1 1 2 5 5 5 6 7 7 7 9 11 11 13 14 16 18 18 20 23 23 27 31 33 33 36 40 45 45 48 51 50 51 51 52 53 52 52 58 64 69 69 71 72 72 69 69 76 76 84
nan nan nan nan nan nan nan nan nan nan nan nan nan nan nan nan nan nan nan nan nan nan nan nan nan nan nan nan nan nan nan nan nan nan nan nan 1 1 2 3 3 3 4 5 5 6 8 10 10 13 15 16 19 19 21 23 23 27 31 33 33 37 39 42 42 44 45 44 47 47 46 49 51 51 56 57 60 60 59 60 60 57 58 64 64 73
nan nan nan nan nan nan nan nan nan nan nan nan nan nan nan nan nan nan nan nan nan nan nan nan nan nan nan nan nan nan nan nan nan nan nan nan 0 0 1 1 1 2 2 3 3 5 6 9 9 11 14 16 18 18 21 24 24 27 31 32 32 34 36 39 39 37 40 38 38 38 40 43 45 45 45 46 47 47 48 51 51 53 56 59 59 64
nan nan nan nan nan nan nan nan nan nan nan nan nan nan nan nan nan nan nan nan nan nan nan nan nan nan nan nan nan nan nan nan nan nan nan nan nan nan 0 0 0 1 1 2 2 3 4 6 6 8 11 15 17 17 18 20 20 24 28 30 30 31 34 35 35 33 34 33 32 32 34 34 33 33 34 34 36 36 40 45 45 49 55 58 58 61
nan nan nan nan nan nan nan nan nan nan nan nan nan nan nan nan nan nan nan nan nan nan nan nan nan nan nan nan nan nan nan nan nan nan nan nan nan nan nan nan nan 0 1 1 1 2 3 5 5 7 9 13 14 14 16 16 16 16 16 17 17 18 19 22 22 23 22 23 24 24 23 23 24 24 24 27 29 29 35 41 41 51 60 65 65 70
nan nan nan nan nan nan nan nan nan nan nan nan nan nan nan nan nan nan nan nan nan nan nan nan nan nan nan nan nan nan nan nan nan nan nan nan nan nan nan nan nan 0 1 1 1 2 3 5 5 7 8 9 10 10 10 10 10 10 10 12 12 12 13 15 15 18 19 21 21 21 22 22 25 25 26 29 33 33 36 41 41 50 60 68 68 80
nan nan nan nan nan nan nan nan nan nan nan nan nan nan nan nan nan nan nan nan nan nan nan nan nan nan nan nan nan nan nan nan nan nan 1 nan 1 1 nan nan nan nan 0 1 1 2 2 3 3 4 4 4 5 5 4 3 3 3 4 5 5 6 8 11 11 14 17 19 21 21 24 26 28 28 33 38 40 40 42 45 45 48 57 67 67 80
nan nan nan nan nan nan nan nan nan nan nan nan nan nan nan nan nan nan nan nan nan nan nan nan nan nan nan nan nan nan nan nan nan nan nan 0 0 0 0 0 0 0 1 1 1 0 0 0 0 0 0 0 0 0 0 0 0 1 1 3 3 4 7 10 10 15 18 22 23 23 27 31 36 36 39 40 42 42 44 46 46 50 53 62 62 77
nan nan nan nan nan nan nan nan nan nan nan nan nan nan nan nan nan nan nan nan nan nan nan nan nan nan nan nan nan nan nan nan nan nan nan nan nan nan nan nan nan nan nan nan nan nan nan nan nan nan nan nan nan nan nan nan nan 0 2 3 3 5 9 13 13 16 21 23 27 27 31 36 38 38 42 42 42 42 44 47 47 50 50 59 59 69
nan nan nan nan nan nan nan nan nan nan nan nan nan nan nan nan nan nan nan nan nan nan nan nan nan nan nan nan nan nan nan nan nan nan nan nan nan nan nan nan nan nan nan nan nan nan nan nan nan nan nan nan nan nan nan 0 0 0 1 4 4 8 11 15 15 20 24 28 31 31 34 37 37 37 41 41 40 40 41 45 45 48 48 58 58 68
nan nan nan nan nan nan nan nan nan nan nan nan nan nan nan nan nan nan nan nan nan nan nan nan nan nan nan nan nan nan nan nan nan nan nan nan nan nan nan nan nan nan nan nan nan nan nan nan nan nan nan nan nan nan nan nan nan 1 3 6 6 10 16 20 20 24 27 31 31 31 33 35 38 38 38 38 40 40 41 45 45 48 52 57 57 64
nan nan nan nan nan nan nan nan nan nan nan nan nan nan nan nan nan nan nan nan nan nan nan nan nan nan nan nan nan nan nan nan nan nan nan nan nan nan nan nan nan nan nan nan nan nan nan nan nan nan nan nan nan nan nan nan nan 2 5 8 8 14 18 22 22 26 27 31 30 30 33 35 36 36 36 37 40 40 42 45 45 47 50 55 55 59
nan nan nan nan nan nan nan nan nan nan nan nan nan nan nan nan nan nan nan nan nan nan nan nan nan nan nan nan nan nan nan nan nan nan nan nan nan nan nan nan nan nan nan nan nan nan nan nan nan nan nan nan nan nan nan 0 0 4 7 11 11 16 20 24 24 26 28 29 30 30 31 32 33 33 36 36 41 41 44 45 45 48 54 58 58 59
nan nan nan nan nan nan nan nan nan nan nan nan nan nan nan nan nan nan nan nan nan nan nan nan nan nan nan nan nan nan nan nan 0 0 nan nan nan nan nan nan nan nan nan nan nan nan nan nan nan nan nan nan nan nan 0 1 1 5 8 12 12 15 18 22 22 24 26 28 30 30 31 32 33 33 34 36 38 38 40 46 46 49 54 59 59 63
nan nan nan nan nan nan nan nan nan nan nan nan nan nan nan nan nan nan nan nan nan nan nan nan nan nan nan 0 nan nan nan 0 1 1 nan nan nan nan nan nan nan nan nan nan nan nan nan nan nan nan nan nan 0 0 0 3 3 5 9 11 11 14 16 19 19 21 24 27 29 29 31 33 34 34 34 35 37 37 44 48 48 51 56 59 59 63
nan nan nan nan nan nan nan nan nan nan nan nan nan nan nan nan nan nan nan nan nan nan nan 1 1 1 0 0 nan nan nan nan nan nan nan nan nan nan nan nan nan nan nan nan nan nan nan nan nan nan nan nan 0 0 1 3 3 5 7 9 9 11 13 16 16 18 23 25 28 28 31 34 33 33 33 35 39 39 42 47 47 50 54 58 58 62
0 1 0 nan nan nan nan nan nan nan nan nan nan nan nan nan nan nan nan nan nan nan 1 1 1 1 0 nan nan nan nan nan nan nan nan nan nan nan nan nan nan nan nan nan nan nan nan nan nan nan nan nan 0 0 1 2 2 4 5 6 6 7 9 13 13 17 20 24 27 27 28 32 30 30 32 35 34 34 39 43 43 46 51 55 55 59
0 0 nan 1 1 nan nan nan nan nan nan nan nan nan nan nan nan nan nan 0 0 3 5 5 5 4 2 0 nan nan nan nan nan nan nan nan nan nan nan nan nan nan nan nan nan nan nan nan nan nan nan nan nan nan 0 1 1 2 3 4 4 5 7 9 9 14 17 21 24 24 28 29 30 30 30 33 35 35 38 40 40 44 49 54 54 56
nan nan nan nan nan nan nan nan nan nan nan nan nan nan nan nan nan nan 1 3 3 5 6 5 5 4 1 1 nan nan nan nan nan nan nan nan nan nan nan nan nan nan nan nan nan nan nan nan nan nan nan nan nan nan nan 0 0 1 2 3 3 4 5 6 6 9 13 16 20 20 23 25 29 29 30 34 34 34 35 38 38 41 43 48 48 52
nan nan nan nan nan nan nan nan nan nan nan nan nan nan nan nan nan nan nan 5 5 13 13 7 7 3 0 nan nan nan nan nan nan nan nan nan nan nan nan nan nan nan nan nan nan nan nan nan nan nan nan nan nan nan nan 0 0 0 1 2 2 3 4 6 6 8 11 14 16 16 20 23 25 25 30 31 32 32 34 37 37 38 41 44 44 49
nan nan nan nan nan nan nan nan nan nan nan nan nan nan nan nan 5 5 6 12 12 9 3 0 0 nan nan nan nan nan nan nan nan nan nan nan nan nan nan nan nan nan nan nan nan nan nan nan nan nan nan nan nan nan nan nan nan 0 1 2 2 3 4 6 6 7 9 11 14 14 17 21 22 22 25 25 29 29 31 35 35 36 39 40 40 45
nan nan nan nan nan nan nan nan nan nan 2 15 34 34 23 9 10 10 4 4 4 3 1 1 1 0 nan nan nan nan nan nan nan nan nan nan nan nan nan nan nan nan nan nan nan nan nan nan nan nan nan nan nan nan nan nan nan 0 1 2 2 3 4 5 5 6 7 8 11 11 13 17 21 21 22 24 27 27 27 29 29 35 37 38 38 40
nan nan nan nan nan 2 5 8 15 15 21 15 10 10 4 4 3 3 2 1 1 1 0 1 1 nan nan nan nan nan nan nan nan nan nan nan nan nan nan nan nan nan nan nan nan nan nan nan nan nan nan nan nan nan nan nan nan 0 1 1 1 1 2 3 3 3 5 7 9 9 12 16 17 17 20 24 25 25 27 30 30 33 34 34 34 40
nan nan 0 3 3 5 10 13 16 16 21 20 6 6 4 4 3 3 2 1 1 1 1 0 0 nan nan nan nan nan nan nan nan nan nan nan nan nan nan nan nan nan nan nan nan nan nan nan nan nan nan nan nan nan nan nan nan 0 0 0 0 1 1 2 2 3 4 6 9 9 11 14 16 16 20 24 25 25 30 31 31 32 34 32 32 36
nan nan 0 1 1 3 6 9 14 14 17 22 25 25 14 5 3 3 1 nan nan 0 1 0 0 nan nan nan nan nan nan nan nan nan nan nan nan nan nan nan nan nan nan nan nan nan nan nan nan nan nan nan nan nan nan nan nan 0 nan nan nan nan 0 1 1 2 4 5 8 8 10 14 17 17 20 23 26 26 31 34 34 34 36 25 25 8
1 1 1 1 1 2 3 4 8 8 13 16 21 21 14 2 1 1 0 nan nan 0 1 0 0 0 nan nan nan nan nan nan nan nan nan nan nan nan nan nan nan nan nan nan nan nan nan nan nan nan nan nan nan nan nan nan nan nan nan nan nan nan 0 1 1 2 4 5 7 7 11 14 17 17 20 23 27 27 30 33 33 37 28 16 16 4
1 4 4 3 3 2 1 nan 2 2 6 10 13 13 7 0 0 0 nan nan nan 0 1 1 1 1 0 nan nan nan nan nan nan nan nan nan nan nan nan nan nan nan nan nan nan nan nan nan nan nan nan nan nan nan nan nan nan nan nan nan nan nan nan 0 0 1 3 5 8 8 11 14 17 17 19 21 26 26 31 34 34 28 10 4 4 2
nan nan nan nan nan nan nan nan nan nan 1 4 5 5 4 0 nan nan nan 1 1 1 1 1 1 1 0 nan nan nan nan nan nan nan nan nan nan nan nan nan nan nan nan nan nan nan nan nan nan nan nan nan nan nan nan nan nan nan nan nan nan nan nan 0 0 1 4 6 8 8 11 13 16 16 17 23 25 25 28 34 34 25 4 2 2 2
nan nan nan nan nan nan nan nan nan nan nan nan nan nan 0 1 0 0 0 0 0 1 0 0 0 0 0 0 nan nan nan nan nan nan nan nan nan nan nan nan nan nan nan nan nan nan nan nan nan nan nan nan nan nan nan nan nan nan nan nan nan nan nan nan nan 0 0 3 6 6 9 9 11 11 13 16 19 19 23 26 26 25 6 1 1 2
nan nan nan nan nan nan nan nan nan nan nan nan nan nan nan nan 1 1 0 nan nan 0 0 1 1 0 0 0 0 0 nan nan nan nan nan nan nan nan nan nan nan nan nan nan nan nan nan nan nan nan nan nan nan nan nan nan nan nan nan nan nan nan nan nan nan nan nan nan 0 0 4 5 8 8 11 13 16 16 20 24 24 27 22 1 1 2
nan nan nan nan nan nan nan nan nan nan nan nan nan nan nan nan nan nan nan nan nan nan 1 1 1 0 0 nan nan nan nan nan nan nan 1 nan 0 0 nan nan nan nan nan nan nan nan nan nan nan nan nan nan nan nan nan nan nan nan nan nan nan nan nan nan nan nan nan nan nan nan nan nan 3 3 4 9 13 13 18 25 25 31 36 16 16 3
nan nan nan nan nan nan nan nan nan nan nan nan nan nan nan nan nan nan nan nan nan nan 0 0 0 0 0 nan 0 0 nan nan nan nan 2 nan nan nan nan nan nan nan nan nan nan nan nan nan nan nan nan nan nan nan nan nan nan nan nan nan nan nan nan nan nan nan nan nan nan nan nan nan nan nan nan 4 12 12 21 28 28 33 38 43 43 28
nan nan nan nan nan nan nan nan nan nan nan nan nan nan nan nan nan nan nan 0 0 1 1 0 0 0 0 nan nan nan nan nan nan nan 3 0 nan nan nan nan nan 0 nan nan nan nan nan nan nan 0 1 nan nan nan nan nan nan nan nan nan nan nan nan nan nan nan nan nan nan nan nan nan nan nan nan 8 18 18 24 29 29 30 32 38 38 39
nan nan nan nan nan nan nan nan nan nan nan nan nan nan nan nan nan nan nan nan nan nan 1 2 2 1 4 1 0 0 nan nan 1 1 3 1 0 0 nan nan nan 1 nan nan nan nan nan nan nan nan nan nan nan nan nan nan nan nan nan nan nan nan nan nan nan nan nan nan nan nan nan nan nan nan nan 10 11 11 16 23 23 20 25 27 27 31
nan nan nan nan nan nan nan nan nan nan nan nan nan nan nan nan nan nan nan nan nan 0 1 1 1 0 4 6 2 2 1 1 nan nan nan 0 0 0 nan nan nan 0 nan nan nan nan nan nan nan nan nan nan nan nan nan nan nan nan nan nan nan nan nan nan nan nan nan nan nan nan nan nan nan nan nan nan nan nan nan nan nan 3 15 17 17 27
nan nan nan nan nan nan nan nan nan nan nan nan nan nan nan nan 0 0 nan 0 0 0 0 0 0 0 0 1 6 6 4 0 nan nan nan nan nan nan nan nan nan nan nan nan nan nan nan nan nan nan nan nan nan nan nan nan nan nan nan nan nan nan nan nan nan nan nan nan nan nan nan nan nan nan nan nan nan nan nan nan nan nan nan nan nan 10
nan 0 nan nan nan nan nan nan nan nan nan nan 0 0 0 0 0 0 nan nan nan nan nan nan nan 0 0 2 3 3 2 nan nan nan nan nan nan nan nan nan nan nan nan nan nan nan nan nan nan nan nan nan nan nan nan nan nan nan 0 nan nan nan nan nan nan nan nan nan nan nan nan nan nan nan nan nan nan nan nan nan nan nan nan nan nan nan
0 0 0 nan nan nan nan nan nan nan nan 0 0 0 0 1 0 0 0 0 0 0 0 0 0 0 0 0 nan nan nan nan nan nan nan nan nan nan nan nan nan nan nan nan nan nan nan nan nan nan nan nan nan nan nan nan nan 1 5 nan nan nan nan nan nan nan nan nan nan nan nan nan nan nan nan nan nan nan nan nan nan nan nan nan nan nan
1 1 nan nan nan nan nan nan 0 0 0 1 1 1 nan nan nan nan nan nan nan nan 0 1 1 1 0 nan nan nan nan nan nan nan nan nan nan nan nan nan nan nan nan nan nan nan nan nan nan nan nan nan nan nan nan nan nan nan 1 nan nan nan nan nan nan nan nan nan nan nan nan nan nan nan nan nan nan nan nan nan nan nan 0 nan nan nan
1 0 nan nan nan nan nan nan 1 1 1 1 0 0 nan 0 0 0 0 0 0 1 1 1 1 1 0 nan nan nan nan nan nan nan nan nan nan nan nan nan nan nan nan nan nan nan nan nan nan nan nan nan nan nan nan nan nan nan nan nan nan nan nan nan nan nan nan nan nan nan nan nan nan nan nan nan nan nan nan nan nan 7 4 nan nan nan
1 nan nan nan nan nan nan 0 0 0 0 0 0 0 nan 0 1 1 1 0 0 0 1 1 1 1 0 nan nan nan nan nan nan nan nan nan nan nan nan nan nan nan nan nan nan nan nan nan nan nan nan nan nan nan nan nan nan nan nan nan nan nan nan nan nan nan nan nan nan nan nan nan nan nan nan nan nan nan nan nan nan nan nan nan nan nan
nan nan nan 0 0 0 0 0 0 0 0 0 0 0 0 0 1 1 0 0 0 1 0 1 1 0 nan nan nan nan nan nan nan nan nan nan 3 3 nan nan nan nan nan nan nan nan nan nan nan nan nan nan nan nan nan nan nan nan nan nan nan nan nan nan nan nan nan nan nan nan nan nan nan nan nan nan nan nan nan nan nan nan nan nan nan nan
nan nan nan 0 0 1 1 0 0 0 0 0 0 0 0 0 1 1 1 0 0 0 nan 1 1 nan nan nan nan nan nan nan nan nan nan nan nan nan nan 0 0 0 nan nan nan nan nan nan nan nan nan nan nan nan nan nan nan nan nan nan nan nan nan nan nan nan nan nan nan nan nan nan nan nan nan nan nan nan nan nan nan nan nan nan nan nan
nan nan nan nan nan 1 0 0 0 0 0 0 0 0 nan 0 0 0 1 1 1 0 0 1 1 nan nan nan nan nan nan nan nan nan nan nan nan nan nan 0 0 2 0 nan nan nan nan nan nan nan nan nan nan nan nan nan nan nan nan nan nan nan nan nan nan nan nan nan nan nan nan nan nan nan nan nan nan nan nan nan nan nan nan nan nan nan
0 0 0 nan nan 0 1 1 0 0 0 0 0 0 0 1 1 1 0 1 1 1 1 nan nan nan nan nan nan nan nan nan nan nan nan nan nan nan nan nan nan 1 1 2 2 2 0 0 0 nan nan nan nan nan nan nan nan nan nan nan nan nan nan nan nan nan nan nan nan nan nan nan nan nan nan nan nan nan nan nan nan nan nan nan nan nan
0 0 0 0 0 0 1 1 1 1 0 0 0 0 0 2 7 7 1 0 0 0 nan nan nan nan nan nan nan nan 0 nan nan nan nan nan nan nan nan 0 0 0 0 1 1 1 1 0 0 0 nan nan nan nan nan nan nan nan nan nan nan nan nan nan nan nan nan nan nan nan nan nan nan nan nan nan nan nan nan nan nan nan nan nan nan nan
0 0 0 1 1 1 1 1 1 1 0 0 0 0 nan nan nan nan nan nan nan nan nan nan nan nan nan nan nan nan nan nan nan nan nan nan nan nan nan 0 0 0 0 0 0 nan nan nan nan 0 3 nan nan nan nan nan nan nan nan nan nan nan nan nan nan nan nan nan nan nan nan nan nan nan nan nan nan nan nan nan nan nan nan nan nan nan
0 1 1 1 1 1 1 0 0 0 nan nan nan nan nan nan nan nan nan nan nan nan nan nan nan nan nan nan nan nan nan nan nan nan nan nan nan nan nan nan nan 0 nan nan nan nan nan nan nan nan 1 7 nan nan nan nan nan nan nan nan nan nan nan nan nan nan nan nan nan nan 0 1 0 0 nan nan nan nan nan nan nan nan nan nan nan nan
CIN
-2 -2 nan nan nan nan nan nan nan nan nan nan nan nan nan nan nan nan nan nan nan nan nan nan nan nan nan nan nan nan nan nan nan nan 0 0 0 0 0 0 0 0 0 0 0 0 0 0 0 0 0 0 0 0 0 0 0 0 0 0 0 0 0 0 0 0 0 0 0 0 0 0 0 0 0 0 0 0 0 0 0 0 0 0 0 0
-1 -1 nan nan nan nan nan nan nan nan nan nan nan nan nan nan nan nan nan nan nan nan nan nan nan nan nan nan nan nan nan nan nan nan 0 0 0 0 0 0 0 0 0 0 0 0 0 0 0 0 0 0 0 0 0 0 0 0 0 0 0 0 0 0 0 0 0 0 0 0 0 0 0 0 0 0 0 0 0 0 0 0 0 0 0 0
-1 -1 nan nan nan nan nan nan nan nan nan nan nan nan nan nan nan nan nan nan nan nan nan nan nan nan nan nan nan nan nan nan nan nan nan 0 0 0 0 0 0 0 0 0 0 0 0 0 0 0 0 0 0 0 0 0 0 0 0 0 0 0 0 0 0 0 0 0 0 0 0 0 0 0 0 0 0 0 0 0 0 0 0 0 0 0
nan nan nan nan nan nan nan nan nan nan nan nan nan nan nan nan nan nan nan nan nan nan nan nan nan nan nan nan nan nan nan nan nan nan nan nan 0 0 0 0 0 0 0 0 0 0 0 0 0 0 0 0 0 0 0 0 0 0 0 0 0 0 0 0 0 0 0 0 0 0 0 0 0 0 0 0 0 0 0 0 0 0 0 0 0 0
nan nan nan nan nan nan nan nan nan nan nan nan nan nan nan nan nan nan nan nan nan nan nan nan nan nan nan nan nan nan nan nan nan nan nan nan 0 0 0 0 0 0 0 0 0 0 0 0 0 0 0 0 0 0 0 0 0 0 0 0 0 0 0 0 0 0 0 0 0 0 0 0 0 0 0 0 0 0 0 0 0 0 0 0 0 0
nan nan nan nan nan nan nan nan nan nan nan nan nan nan nan nan nan nan nan nan nan nan nan nan nan nan nan nan nan nan nan nan nan nan nan nan 0 0 0 0 0 0 0 0 0 0 0 0 0 0 0 0 0 0 0 0 0 0 0 0 0 0 0 0 0 0 0 0 0 0 0 0 0 0 0 0 0 0 0 0 0 0 0 0 0 0
nan nan nan nan nan nan nan nan nan nan nan nan nan nan nan nan nan nan nan nan nan nan nan nan nan nan nan nan nan nan nan nan nan nan nan nan nan nan 0 0 0 0 0 0 0 0 0 0 0 0 0 0 0 0 0 0 0 0 0 0 0 0 0 0 0 0 0 0 0 0 0 0 0 0 0 0 0 0 0 0 0 0 0 0 0 0
nan nan nan nan nan nan nan nan nan nan nan nan nan nan nan nan nan nan nan nan nan nan nan nan nan nan nan nan nan nan nan nan nan nan nan nan nan nan nan nan nan 0 0 0 0 0 0 0 0 0 0 0 0 0 0 0 0 0 0 0 0 0 0 0 0 0 0 0 0 0 0 0 0 0 0 0 0 0 0 0 0 0 0 0 0 0
nan nan nan nan nan nan nan nan nan nan nan nan nan nan nan nan nan nan nan nan nan nan nan nan nan nan nan nan nan nan nan nan nan nan nan nan nan nan nan nan nan 0 0 0 0 0 0 0 0 0 0 0 0 0 0 0 0 0 0 0 0 0 0 0 0 0 0 0 0 0 0 0 0 0 0 0 0 0 0 0 0 0 0 0 0 0
nan nan nan nan nan nan nan nan nan nan nan nan nan nan nan nan nan nan nan nan nan nan nan nan nan nan nan nan nan nan nan nan nan nan 0 nan 0 0 nan nan nan nan 0 0 0 0 0 0 0 0 0 0 0 0 0 0 0 0 0 0 0 0 0 0 0 0 0 0 0 0 0 0 0 0 0 0 0 0 0 0 0 0 0 0 0 0
nan nan nan nan nan nan nan nan nan nan nan nan nan nan nan nan nan nan nan nan nan nan nan nan nan nan nan nan nan nan nan nan nan nan nan 0 0 0 0 0 0 0 0 0 0 0 0 0 0 0 0 0 0 0 0 0 0 0 0 0 0 0 0 0 0 0 0 0 0 0 0 0 0 0 0 0 0 0 0 0 0 0 0 0 0 0
nan nan nan nan nan nan nan nan nan nan nan nan nan nan nan nan nan nan nan nan nan nan nan nan nan nan nan nan nan nan nan nan nan nan nan nan nan nan nan nan nan nan nan nan nan nan nan nan nan nan nan nan nan nan nan nan nan 0 0 0 0 0 0 0 0 0 0 0 0 0 0 0 0 0 0 0 0 0 0 0 0 0 0 0 0 0
nan nan nan nan nan nan nan nan nan nan nan nan nan nan nan nan nan nan nan nan nan nan nan nan nan nan nan nan nan nan nan nan nan nan nan nan nan nan nan nan nan nan nan nan nan nan nan nan nan nan nan nan nan nan nan 0 0 0 0 0 0 0 0 0 0 0 0 0 0 0 0 0 0 0 0 0 0 0 0 0 0 0 0 0 0 0
nan nan nan nan nan nan nan nan nan nan nan nan nan nan nan nan nan nan nan nan nan nan nan nan nan nan nan nan nan nan nan nan nan nan nan nan nan nan nan nan nan nan nan nan nan nan nan nan nan nan nan nan nan nan nan nan nan 0 0 0 0 0 0 0 0 0 0 0 0 0 0 0 0 0 0 0 0 0 0 0 0 0 0 0 0 0
nan nan nan nan nan nan nan nan nan nan nan nan nan nan nan nan nan nan nan nan nan nan nan nan nan nan nan nan nan nan nan nan nan nan nan nan nan nan nan nan nan nan nan nan nan nan nan nan nan nan nan nan nan nan nan nan nan 0 0 0 0 0 0 0 0 0 0 0 0 0 0 0 0 0 0 0 0 0 0 0 0 0 0 0 0 0
nan nan nan nan nan nan nan nan nan nan nan nan nan nan nan nan nan nan nan nan nan nan nan nan nan nan nan nan nan nan nan nan nan nan nan nan nan nan nan nan nan nan nan nan nan nan nan nan nan nan nan nan nan nan nan 0 0 0 0 0 0 0 0 0 0 0 0 0 0 0 0 0 0 0 0 0 0 0 0 0 0 0 0 0 0 0
nan nan nan nan nan nan nan nan nan nan nan nan nan nan nan nan nan nan nan nan nan nan nan nan nan nan nan nan nan nan nan nan -10 -10 nan nan nan nan nan nan nan nan nan nan nan nan nan nan nan nan nan nan nan nan 0 0 0 0 0 0 0 0 0 0 0 0 0 0 0 0 0 0 0 0 0 0 0 0 0 0 0 0 0 0 0 0
nan nan nan nan nan nan nan nan nan nan nan nan nan nan nan nan nan nan nan nan nan nan nan nan nan nan nan 0 nan nan nan -2 -3 -3 nan nan nan nan nan nan nan nan nan nan nan nan nan nan nan nan nan nan 0 0 0 0 0 0 0 0 0 0 0 0 0 0 0 0 0 0 0 0 0 0 0 0 0 0 0 0 0 0 0 0 0 0
nan nan nan nan nan nan nan nan nan nan nan nan nan nan nan nan nan nan nan nan nan nan nan -4 -4 -0 -0 0 nan nan nan nan nan nan nan nan nan nan nan nan nan nan nan nan nan nan nan nan nan nan nan nan 0 0 0 0 0 0 0 0 0 0 0 0 0 0 0 0 0 0 0 0 0 0 0 0 0 0 0 0 0 0 0 0 0 0
-1 -0 -2 nan nan nan nan nan nan nan nan nan nan nan nan nan nan nan nan nan nan nan -5 -2 -2 -1 -2 nan nan nan nan nan nan nan nan nan nan nan nan nan nan nan nan nan nan nan nan nan nan nan nan nan 0 0 0 0 0 0 0 0 0 0 0 0 0 0 0 0 0 0 0 0 0 0 0 0 0 0 0 0 0 0 0 0 0 0
-5 -1 nan 0 0 nan nan nan nan nan nan nan nan nan nan nan nan nan nan -13 -13 -7 -4 -3 -3 -3 -1 -6 nan nan nan nan nan nan nan nan nan nan nan nan nan nan nan nan nan nan nan nan nan nan nan nan nan nan 0 0 0 0 0 0 0 0 0 0 0 0 0 0 0 0 0 0 0 0 0 0 0 0 0 0 0 0 0 0 0 0
nan nan nan nan nan nan nan nan nan nan nan nan nan nan nan nan nan nan -10 -7 -7 -3 -3 -4 -4 -4 -3 -0 nan nan nan nan nan nan nan nan nan nan nan nan nan nan nan nan nan nan nan nan nan nan nan nan nan nan nan 0 0 0 0 0 0 0 0 0 0 0 0 0 0 0 0 0 0 0 0 0 0 0 0 0 0 0 0 0 0 0
nan nan nan nan nan nan nan nan nan nan nan nan nan nan nan nan nan nan nan -2 -2 -1 -1 -3 -3 -6 -6 nan nan nan nan nan nan nan nan nan nan nan nan nan nan nan nan nan nan nan nan nan nan nan nan nan nan nan nan 0 0 0 0 0 0 0 0 0 0 0 0 0 0 0 0 0 0 0 0 0 0 0 0 0 0 0 0 0 0 0
nan nan nan nan nan nan nan nan nan nan nan nan nan nan nan nan -2 -2 -2 -1 -1 -2 -5 -7 -7 nan nan nan nan nan nan nan nan nan nan nan nan nan nan nan nan nan nan nan nan nan nan nan nan nan nan nan nan nan nan nan nan 0 0 0 0 0 0 0 0 0 0 0 0 0 0 0 0 0 0 0 0 0 0 0 0 0 0 0 0 0
nan nan nan nan nan nan nan nan nan nan -14 -10 -3 -3 -7 -8 -1 -1 -3 -2 -2 -4 -6 -2 -2 -0 nan nan nan nan nan nan nan nan nan nan nan nan nan nan nan nan nan nan nan nan nan nan nan nan nan nan nan nan nan nan nan 0 0 0 0 0 0 0 0 0 0 0 0 0 0 0 0 0 0 0 0 0 0 0 0 0 0 0 0 0
nan nan nan nan nan 0 0 0 0 0 0 -4 -3 -3 -4 -1 -3 -3 -8 -4 -4 -3 -2 -2 -2 nan nan nan nan nan nan nan nan nan nan nan nan nan nan nan nan nan nan nan nan nan nan nan nan nan nan nan nan nan nan nan nan 0 0 0 0 0 0 0 0 0 0 0 0 0 0 0 0 0 0 0 0 0 0 0 0 0 0 0 0 0
nan nan 0 0 0 0 0 0 0 0 0 0 0 0 -2 -3 -3 -3 -1 -1 -1 -0 -1 -1 -1 nan nan nan nan nan nan nan nan nan nan nan nan nan nan nan nan nan nan nan nan nan nan nan nan nan nan nan nan nan nan nan nan 0 0 0 0 0 0 0 0 0 0 0 0 0 0 0 0 0 0 0 0 0 0 0 0 0 0 0 0 0
nan nan 0 0 0 0 0 0 0 0 0 0 0 0 0 -2 -1 -1 -0 nan nan -2 -2 -2 -2 nan nan nan nan nan nan nan nan nan nan nan nan nan nan nan nan nan nan nan nan nan nan nan nan nan nan nan nan nan nan nan nan 0 nan nan nan nan 0 0 0 0 0 0 0 0 0 0 0 0 0 0 0 0 0 0 0 0 0 0 0 -13
0 0 0 0 0 0 0 0 0 0 0 0 0 0 0 -4 -1 -1 -3 nan nan -4 -1 -0 -0 -0 nan nan nan nan nan nan nan nan nan nan nan nan nan nan nan nan nan nan nan nan nan nan nan nan nan nan nan nan nan nan nan nan nan nan nan nan 0 0 0 0 0 0 0 0 0 0 0 0 0 0 0 0 0 0 0 0 0 0 0 -16
-0 0 0 0 0 0 0 nan 0 0 0 0 0 0 0 -6 -5 -5 nan nan nan -1 0 0 0 -0 -2 nan nan nan nan nan nan nan nan nan nan nan nan nan nan nan nan nan nan nan nan nan nan nan nan nan nan nan nan nan nan nan nan nan nan nan nan 0 0 0 0 0 0 0 0 0 0 0 0 0 0 0 0 0 0 0 -3 -16 -16 -21
nan nan nan nan nan nan nan nan nan nan 0 0 0 0 0 -4 nan nan nan -3 -3 -2 -0 0 0 -0 -2 nan nan nan nan nan nan nan nan nan nan nan nan nan nan nan nan nan nan nan nan nan nan nan nan nan nan nan nan nan nan nan nan nan nan nan nan 0 0 0 0 0 0 0 0 0 0 0 0 0 0 0 0 0 0 0 -13 -24 -24 -25
nan nan nan nan nan nan nan nan nan nan nan nan nan nan 0 0 -0 -0 -2 -5 -5 -3 -3 -2 -2 -1 -1 -3 nan nan nan nan nan nan nan nan nan nan nan nan nan nan nan nan nan nan nan nan nan nan nan nan nan nan nan nan nan nan nan nan nan nan nan nan nan 0 -0 0 0 0 0 0 0 0 0 0 0 0 0 0 0 0 -12 -27 -27 -19
nan nan nan nan nan nan nan nan nan nan nan nan nan nan nan nan 0 0 -1 nan nan -5 -3 -1 -1 -1 -2 -2 -3 -3 nan nan nan nan nan nan nan nan nan nan nan nan nan nan nan nan nan nan nan nan nan nan nan nan nan nan nan nan nan nan nan nan nan nan nan nan nan nan -2 -2 0 0 0 0 0 0 0 0 0 0 0 0 0 -27 -27 -21
nan nan nan nan nan nan nan nan nan nan nan nan nan nan nan nan nan nan nan nan nan nan -6 -2 -2 -3 -2 nan nan nan nan nan nan nan -2 nan -6 -6 nan nan nan nan nan nan nan nan nan nan nan nan nan nan nan nan nan nan nan nan nan nan nan nan nan nan nan nan nan nan nan nan nan nan 0 0 0 0 0 0 0 0 0 0 0 -3 -3 -16
nan nan nan nan nan nan nan nan nan nan nan nan nan nan nan nan nan nan nan nan nan nan -6 -6 -6 -6 -3 nan -1 -1 nan nan nan nan -0 nan nan nan nan nan nan nan nan nan nan nan nan nan nan nan nan nan nan nan nan nan nan nan nan nan nan nan nan nan nan nan nan nan nan nan nan nan nan nan nan 0 0 0 0 0 0 0 0 0 0 0
nan nan nan nan nan nan nan nan nan nan nan nan nan nan nan nan nan nan nan -7 -7 -0 -0 -6 -6 -6 -7 nan nan nan nan nan nan nan 0 -6 nan nan nan nan nan -4 nan nan nan nan nan nan nan -0 0 nan nan nan nan nan nan nan nan nan nan nan nan nan nan nan nan nan nan nan nan nan nan nan nan 0 0 0 0 0 0 0 0 0 0 0
nan nan nan nan nan nan nan nan nan nan nan nan nan nan nan nan nan nan nan nan nan nan -4 -0 -0 -2 -0 -8 -7 -7 nan nan -0 -0 -0 -10 -6 -6 nan nan nan -1 nan nan nan nan nan nan nan nan nan nan nan nan nan nan nan nan nan nan nan nan nan nan nan nan nan nan nan nan nan nan nan nan nan 0 0 0 0 0 0 0 0 0 0 0
nan nan nan nan nan nan nan nan nan nan nan nan nan nan nan nan nan nan nan nan nan -14 -7 -3 -3 -2 0 0 -7 -7 -5 -2 nan nan nan -16 -7 -7 nan nan nan -2 nan nan nan nan nan nan nan nan nan nan nan nan nan nan nan nan nan nan nan nan nan nan nan nan nan nan nan nan nan nan nan nan nan nan nan nan nan nan nan -3 0 0 0 0
nan nan nan nan nan nan nan nan nan nan nan nan nan nan nan nan -1 -1 nan -3 -3 -5 -7 -4 -4 -3 -18 -20 -3 -3 -3 -18 nan nan nan nan nan nan nan nan nan nan nan nan nan nan nan nan nan nan nan nan nan nan nan nan nan nan nan nan nan nan nan nan nan nan nan nan nan nan nan nan nan nan nan nan nan nan nan nan nan nan nan nan nan -0
nan -0 nan nan nan nan nan nan nan nan nan nan 0 0 0 0 -0 -0 nan nan nan nan nan nan nan -7 -10 -4 -1 -1 -8 nan nan nan nan nan nan nan nan nan nan nan nan nan nan nan nan nan nan nan nan nan nan nan nan nan nan nan -2 nan nan nan nan nan nan nan nan nan nan nan nan nan nan nan nan nan nan nan nan nan nan nan nan nan nan nan
0 0 0 nan nan nan nan nan nan nan nan -0 -1 -1 -0 0 -0 -0 0 -2 -2 -3 -4 -4 -4 -5 -9 -16 nan nan nan nan nan nan nan nan nan nan nan nan nan nan nan nan nan nan nan nan nan nan nan nan nan nan nan nan nan -0 0 nan nan nan nan nan nan nan nan nan nan nan nan nan nan nan nan nan nan nan nan nan nan nan nan nan nan nan
0 0 nan nan nan nan nan nan 0 0 0 -1 0 0 nan nan nan nan nan nan nan nan -4 -4 -4 -4 -5 nan nan nan nan nan nan nan nan nan nan nan nan nan nan nan nan nan nan nan nan nan nan nan nan nan nan nan nan nan nan nan -1 nan nan nan nan nan nan nan nan nan nan nan nan nan nan nan nan nan nan nan nan nan nan nan -13 nan nan nan
0 0 nan nan nan nan nan nan 0 0 0 -0 -0 -0 nan -1 -0 -0 0 -2 -2 -1 -1 -3 -3 -3 -3 nan nan nan nan nan nan nan nan nan nan nan nan nan nan nan nan nan nan nan nan nan nan nan nan nan nan nan nan nan nan nan nan nan nan nan nan nan nan nan nan nan nan nan nan nan nan nan nan nan nan nan nan nan nan -3 -5 nan nan nan
0 nan nan nan nan nan nan 0 0 0 0 -0 -1 -1 nan -2 -0 -0 -0 -3 -3 -1 -2 -5 -5 -5 -4 nan nan nan nan nan nan nan nan nan nan nan nan nan nan nan nan nan nan nan nan nan nan nan nan nan nan nan nan nan nan nan nan nan nan nan nan nan nan nan nan nan nan nan nan nan nan nan nan nan nan nan nan nan nan nan nan nan nan nan
nan nan nan 0 0 0 0 0 0 0 -0 -0 -1 -1 -1 -1 -0 -0 -1 -2 -2 -2 -4 -5 -5 -3 nan nan nan nan nan nan nan nan nan nan -12 -12 nan nan nan nan nan nan nan nan nan nan nan nan nan nan nan nan nan nan nan nan nan nan nan nan nan nan nan nan nan nan nan nan nan nan nan nan nan nan nan nan nan nan nan nan nan nan nan nan
nan nan nan 0 0 0 0 -0 -1 -1 -2 -1 -2 -2 -2 -5 -5 -5 -3 -2 -2 -2 nan -5 -5 nan nan nan nan nan nan nan nan nan nan nan nan nan nan -25 -25 -24 nan nan nan nan nan nan nan nan nan nan nan nan nan nan nan nan nan nan nan nan nan nan nan nan nan nan nan nan nan nan nan nan nan nan nan nan nan nan nan nan nan nan nan nan
nan nan nan nan nan 0 -0 -1 -2 -2 -2 -2 -2 -2 nan -7 -7 -7 -6 -5 -5 -5 -5 -4 -4 nan nan nan nan nan nan nan nan nan nan nan nan nan nan -24 -24 -23 -25 nan nan nan nan nan nan nan nan nan nan nan nan nan nan nan nan nan nan nan nan nan nan nan nan nan nan nan nan nan nan nan nan nan nan nan nan nan nan nan nan nan nan nan
0 0 0 nan nan 0 -1 -1 -2 -2 -2 -3 -4 -4 -5 -7 -7 -7 -7 -7 -7 -5 -1 nan nan nan nan nan nan nan nan nan nan nan nan nan nan nan nan nan nan -17 -17 -16 -16 -15 -20 -29 -29 nan nan nan nan nan nan nan nan nan nan nan nan nan nan nan nan nan nan nan nan nan nan nan nan nan nan nan nan nan nan nan nan nan nan nan nan nan
0 0 0 -0 -0 -1 -1 -2 -3 -3 -2 -3 -4 -4 -5 -1 0 0 -4 -6 -6 -5 nan nan nan nan nan nan nan nan -1 nan nan nan nan nan nan nan nan -15 -15 -14 -17 -17 -17 -17 -17 -27 -27 -23 nan nan nan nan nan nan nan nan nan nan nan nan nan nan nan nan nan nan nan nan nan nan nan nan nan nan nan nan nan nan nan nan nan nan nan nan
0 0 0 -0 -0 -1 -2 -2 -2 -2 -2 -2 -4 -4 nan nan nan nan nan nan nan nan nan nan nan nan nan nan nan nan nan nan nan nan nan nan nan nan nan -13 -13 -12 -14 -17 -17 nan nan nan nan -22 -13 nan nan nan nan nan nan nan nan nan nan nan nan nan nan nan nan nan nan nan nan nan nan nan nan nan nan nan nan nan nan nan nan nan nan nan
0 0 -0 -1 -1 -1 -1 -2 -1 -1 nan nan nan nan nan nan nan nan nan nan nan nan nan nan nan nan nan nan nan nan nan nan nan nan nan nan nan nan nan nan nan -13 nan nan nan nan nan nan nan nan -14 -3 nan nan nan nan nan nan nan nan nan nan nan nan nan nan nan nan nan nan -39 -32 -26 -26 nan nan nan nan nan nan nan nan nan nan nan nan
Wind_Speed
2 2 2 3 3 2 3 4 5 5 4 3 3 3 4 4 3 3 4 5 5 5 5 5 6 6 7 9 10 11 12 13 13 14 15 15 16 16 16 16 16 16 16 16 16 16 16 16 16 16 16 17 17 17 17 18 18 18 18 18 18 18 18 19 19 19 19 19 19 19 19 19 19 20 20 20 20 20 20 21 21 21 22 22 22 22
2 2 2 3 3 3 3 5 5 5 4 4 4 3 3 3 3 3 4 5 5 5 5 5 6 6 7 8 9 11 12 13 14 14 15 15 16 16 16 16 16 16 16 16 16 16 16 16 16 16 16 16 17 17 17 17 18 18 18 18 18 18 18 18 18 19 19 19 19 19 19 19 20 20 20 20 20 20 21 21 21 22 22 22 22 22
2 2 2 4 4 4 3 4 5 5 4 4 4 4 4 4 4 4 4 4 4 5 5 5 5 6 6 7 9 11 12 13 14 15 15 16 16 17 17 17 16 16 16 16 16 15 15 15 15 16 16 16 16 17 17 17 18 18 18 18 18 18 18 18 18 18 19 19 19 19 19 19 19 20 20 20 20 21 21 21 21 22 22 22 22 22
3 3 3 3 4 4 4 4 4 4 3 3 3 4 5 5 4 4 4 4 4 4 5 5 5 5 5 6 7 10 12 13 14 15 16 17 17 17 17 17 16 16 16 15 15 15 15 15 15 16 16 16 17 17 17 17 18 18 18 18 18 18 18 18 18 18 18 19 19 19 19 19 19 19 20 20 20 21 21 21 21 22 22 22 22 22
3 3 3 3 3 3 4 3 3 3 2 2 3 4 4 4 4 3 3 4 4 4 4 5 5 5 5 5 7 10 12 14 15 16 16 17 17 17 17 16 16 16 15 15 15 15 15 15 16 16 16 17 17 17 18 18 18 18 18 18 18 18 18 18 18 18 18 18 18 18 19 19 19 19 19 20 20 20 21 21 21 21 22 22 22 22
2 2 2 2 2 2 2 2 2 2 2 2 3 3 3 3 3 3 3 3 4 4 4 4 4 5 5 6 8 10 13 14 15 16 16 16 16 16 16 15 15 15 15 15 15 15 15 16 16 17 17 17 18 18 18 18 18 18 18 18 18 18 18 18 18 18 18 18 18 18 18 18 19 19 19 20 20 20 20 21 21 21 22 22 22 22
2 2 2 1 1 1 1 1 2 2 2 2 2 2 2 3 3 3 3 3 3 3 3 4 4 5 6 7 8 10 11 13 14 14 15 15 15 15 14 14 14 14 15 15 15 16 16 17 17 17 17 18 18 18 18 18 18 18 18 18 18 18 18 18 18 18 18 18 18 18 18 18 18 19 19 19 20 20 20 20 21 21 21 22 22 22
1 1 2 2 2 2 2 2 2 2 2 2 2 2 2 2 3 3 2 3 3 3 3 4 4 4 5 6 7 8 8 9 10 10 11 12 12 13 13 13 14 14 15 15 16 16 17 17 17 18 18 18 18 18 19 18 18 18 18 18 17 17 17 17 17 17 17 17 17 17 17 18 18 18 18 19 19 20 20 20 21 21 21 22 22 22
2 2 2 2 2 2 2 2 1 1 1 1 2 2 3 3 3 3 3 3 3 3 3 3 4 4 5 5 6 7 7 7 7 7 8 8 9 9 11 12 13 14 15 15 16 17 17 17 18 18 18 18 18 18 18 18 18 17 17 17 17 17 17 16 16 16 16 16 16 17 17 17 18 18 18 19 19 19 20 20 20 21 21 22 22 22
3 3 2 2 2 1 1 1 1 1 1 2 2 2 2 3 3 3 3 3 3 2 2 3 4 5 5 5 5 6 7 7 9 10 10 9 10 10 11 11 11 12 14 15 16 16 17 17 17 18 18 18 18 18 17 17 17 17 16 16 16 16 16 16 16 16 16 16 16 17 17 17 18 18 19 19 19 19 20 20 20 21 21 22 22 22
3 3 2 2 1 1 1 1 1 1 2 2 2 3 3 3 3 3 4 4 3 3 2 3 3 4 5 5 5 5 6 6 7 8 9 10 11 11 11 11 11 12 14 14 15 16 16 17 17 17 17 17 17 17 16 16 16 16 16 16 16 15 15 15 15 16 16 16 16 17 17 18 18 19 19 19 20 20 20 20 21 21 21 22 22 22
2 2 1 1 1 1 1 1 2 2 2 2 3 3 3 3 2 2 3 4 4 4 4 3 3 3 4 4 4 5 5 5 5 5 5 6 7 7 8 8 9 10 11 12 13 14 15 16 16 16 16 16 16 16 16 15 15 15 15 15 15 15 15 15 15 16 16 17 17 18 18 18 19 19 19 20 20 20 20 20 21 21 21 22 22 22
2 1 1 1 1 1 1 2 2 2 3 3 3 2 2 1 1 2 2 3 4 4 4 4 3 3 3 4 4 4 5 5 5 4 4 3 3 4 4 4 5 6 6 7 8 9 12 14 14 15 15 15 15 15 15 15 14 15 15 15 15 15 15 16 16 16 17 18 18 18 19 19 19 20 20 20 20 20 21 21 21 21 21 22 22 22
2 1 1 1 1 2 2 2 3 2 2 2 2 1 2 2 2 2 2 3 4 4 3 4 4 3 3 4 4 4 4 4 4 4 4 3 3 3 3 4 4 5 5 6 6 7 9 10 10 11 13 13 14 14 13 14 14 14 15 15 15 16 16 17 17 18 18 18 19 19 19 19 20 20 20 20 20 21 21 21 21 21 21 22 22 22
1 1 1 2 2 2 2 2 2 2 2 1 1 2 2 2 2 3 3 3 3 3 3 4 4 4 3 3 3 4 4 4 4 4 4 4 3 3 4 4 5 5 5 6 6 7 9 8 7 7 9 10 11 12 13 13 14 15 15 16 16 17 17 18 18 18 19 19 19 19 20 20 20 20 20 20 21 21 21 21 21 21 22 22 22 22
1 1 2 2 2 2 2 2 2 2 2 2 2 2 2 2 2 2 3 3 3 3 3 4 4 4 3 3 3 3 4 4 4 4 5 4 4 4 4 5 5 6 6 6 6 6 6 6 7 7 8 10 12 14 15 15 15 16 17 17 18 18 19 19 19 19 19 19 19 20 20 20 20 20 20 21 21 21 21 21 21 22 22 22 23 23
1 1 2 2 2 2 2 2 2 2 2 2 2 2 2 2 2 2 2 2 2 2 3 3 4 4 3 3 3 3 4 4 4 4 5 5 5 4 4 5 5 6 7 7 6 6 6 6 6 6 7 10 13 15 16 17 17 18 18 19 19 19 19 19 19 19 20 20 20 20 20 20 21 21 21 21 21 21 21 21 21 22 22 23 23 23
1 2 2 2 2 2 2 2 2 2 2 2 2 2 2 2 2 2 2 2 2 2 3 3 3 3 3 3 3 3 4 4 5 5 5 6 5 5 4 4 5 6 7 7 7 6 6 6 6 6 8 13 15 17 18 18 18 19 19 19 19 19 19 19 20 20 20 20 20 21 21 21 21 21 21 21 21 21 21 21 21 22 22 23 23 23
1 1 2 2 2 2 2 2 2 1 1 1 2 2 2 2 2 2 2 2 3 3 4 4 4 4 4 4 4 4 4 5 5 5 5 6 6 5 4 5 6 7 7 7 6 6 6 6 7 10 13 16 17 18 18 19 19 19 19 19 20 20 20 20 20 20 21 21 21 21 21 21 21 21 21 21 21 21 21 21 22 22 22 22 23 23
2 2 2 2 2 2 2 2 1 1 2 2 2 2 2 2 3 3 3 3 3 3 4 4 5 5 4 5 5 5 5 5 5 5 5 6 6 5 4 5 5 7 7 6 6 6 6 6 7 9 13 15 17 18 18 19 19 19 20 20 20 20 21 21 21 21 21 21 21 21 21 21 21 21 21 21 21 21 21 22 22 22 22 22 23 23
2 3 2 2 2 2 1 1 2 2 3 3 2 2 2 2 3 3 3 3 3 4 4 4 4 5 4 5 5 5 5 5 5 5 4 5 5 5 4 4 5 6 7 6 6 6 6 6 6 7 10 14 16 18 19 19 20 20 21 21 21 21 21 21 21 21 21 21 21 21 21 21 21 21 21 21 21 21 22 22 22 22 22 22 23 23
3 3 3 3 2 2 2 2 2 3 3 2 2 2 3 3 3 4 3 3 4 4 4 4 4 5 5 6 6 6 5 5 5 5 4 5 5 6 4 4 4 5 6 6 6 6 6 6 6 7 10 15 17 19 20 20 20 21 21 21 21 21 21 21 21 21 21 21 21 21 21 21 21 21 21 21 22 22 22 22 22 22 22 22 22 23
3 3 3 3 3 3 2 2 2 2 2 2 2 3 2 3 3 4 3 4 4 4 5 5 5 5 6 6 6 6 6 5 5 4 4 5 5 5 4 3 4 5 6 6 6 6 6 6 7 8 11 15 18 19 20 21 21 21 21 21 21 21 21 21 21 21 21 21 21 21 21 21 21 22 22 22 22 22 22 22 22 22 22 22 22 22
3 3 3 2 2 2 1 2 2 2 2 2 2 3 3 3 3 4 3 3 4 4 5 5 6 6 6 6 6 6 5 4 4 3 3 4 5 5 4 3 4 6 7 6 6 6 7 7 7 7 8 14 17 19 20 21 21 21 21 21 21 21 21 21 21 21 21 21 21 21 21 22 22 22 22 22 22 22 22 22 22 22 22 22 22 22
3 3 2 2 2 3 3 3 3 3 3 2 3 3 3 4 5 5 4 5 5 5 5 6 7 6 5 5 5 4 4 3 3 3 3 3 4 5 4 4 4 6 7 6 6 6 7 7 7 7 8 11 15 18 20 20 21 21 21 21 21 21 20 21 21 21 21 21 22 22 22 22 22 22 22 22 22 22 22 22 22 22 22 22 22 22
5 5 5 6 6 7 8 8 8 7 7 6 5 4 4 4 5 5 5 5 5 5 6 6 6 6 4 4 3 3 3 3 3 2 3 3 4 4 4 4 4 5 6 6 5 6 7 8 8 8 8 9 12 16 18 19 20 20 20 20 20 20 20 21 21 21 21 22 22 22 22 22 22 22 22 22 22 22 22 22 22 22 22 22 22 21
6 7 8 9 9 10 10 10 11 11 11 10 9 7 5 5 5 5 6 5 5 5 6 6 6 5 4 4 3 3 3 2 2 2 3 3 4 4 4 3 4 5 6 6 5 6 8 8 8 8 8 8 10 12 16 17 19 19 19 20 20 20 21 21 21 21 21 21 22 22 22 22 22 22 22 22 22 22 22 22 22 22 22 21 19 17
6 7 7 8 9 9 10 11 11 12 12 12 12 11 8 6 5 6 6 5 5 5 6 6 6 5 4 4 3 3 3 3 3 3 3 3 4 4 4 4 4 4 5 5 6 6 8 8 8 8 8 8 8 9 12 15 16 18 18 19 20 20 21 21 21 21 21 21 21 21 21 21 22 22 22 22 22 22 22 22 22 21 20 17 13 10
5 6 7 7 8 9 10 10 11 11 12 12 12 11 8 6 5 6 5 5 5 5 6 6 5 5 5 4 4 4 4 4 4 4 3 3 3 3 3 3 4 4 4 5 5 5 6 6 6 6 6 8 8 7 8 11 13 14 16 18 19 19 20 20 20 20 20 21 21 21 21 21 21 22 22 22 22 22 22 22 21 19 15 12 9 8
4 5 6 7 7 8 8 8 8 9 10 11 11 10 8 6 5 5 5 5 5 5 6 6 5 5 5 4 4 4 3 3 3 3 2 2 3 3 3 3 4 4 4 4 5 5 5 4 4 4 5 7 7 7 7 8 9 10 10 13 15 16 17 18 19 19 20 20 21 21 21 21 21 21 21 21 21 21 21 22 20 16 10 8 8 7
5 5 5 5 5 5 5 5 5 6 7 8 8 7 6 5 5 5 5 5 5 5 5 5 5 5 5 4 4 3 3 2 2 2 2 2 2 3 3 4 4 4 3 3 4 5 6 5 4 4 4 6 7 7 7 8 8 8 8 9 9 11 15 16 17 18 18 19 19 20 20 21 21 21 21 21 21 21 21 21 19 15 9 8 7 7
5 5 4 4 4 4 3 3 3 3 4 4 5 5 5 4 4 4 4 4 4 4 5 5 5 5 5 4 4 4 3 2 3 4 3 2 3 3 3 4 4 4 3 3 3 4 5 5 5 5 5 6 7 7 8 8 7 7 7 7 7 8 13 14 15 15 15 16 17 18 19 19 20 20 20 20 20 20 21 21 19 15 9 7 7 7
4 4 4 4 4 3 3 3 3 3 3 3 3 3 3 4 4 4 4 4 4 4 4 5 5 5 5 5 5 5 4 4 4 5 5 3 3 3 3 4 4 4 4 4 4 4 5 6 6 6 6 6 6 7 7 8 7 7 7 7 7 7 10 11 11 11 11 12 13 15 16 18 18 19 19 20 20 20 20 20 19 16 12 8 7 7
4 4 4 4 4 3 3 3 3 2 2 2 2 3 3 3 3 4 4 4 4 4 4 5 5 5 5 5 5 6 5 5 5 6 6 4 3 3 4 4 5 5 5 4 4 5 5 6 7 7 7 6 6 6 7 7 7 7 6 6 6 6 8 8 8 8 9 9 9 10 11 12 14 15 17 17 18 18 18 19 19 18 17 12 9 8
4 4 4 4 3 3 3 2 2 2 2 2 3 3 3 3 3 3 4 4 4 4 4 5 5 5 5 5 5 6 6 5 5 6 6 4 4 3 4 4 4 5 5 5 5 5 5 7 8 8 8 7 7 6 6 6 6 6 6 6 6 6 7 7 7 7 8 8 8 8 8 8 9 10 12 14 15 17 18 19 19 20 20 17 15 11
4 4 3 3 3 3 2 2 2 2 2 2 2 2 3 3 3 3 3 4 4 5 5 5 5 5 5 6 6 7 7 6 6 6 7 5 4 4 4 4 5 5 5 6 6 5 5 7 8 9 9 9 8 7 6 5 6 6 6 7 7 7 8 7 7 7 7 8 8 8 7 7 7 8 9 13 16 17 19 19 20 20 20 20 19 17
3 3 3 3 3 2 2 2 2 2 2 2 2 3 3 3 4 4 4 4 4 4 5 6 6 7 7 7 7 7 7 7 7 7 8 6 5 5 5 5 5 6 6 6 6 6 6 7 8 9 8 8 7 6 6 6 6 6 7 7 8 8 8 8 8 8 8 8 8 8 8 8 8 8 9 13 15 16 18 19 19 19 20 20 20 20
3 3 3 3 3 2 2 2 2 2 2 3 3 3 3 4 4 5 5 5 5 5 6 6 6 8 10 10 10 10 10 10 10 10 10 8 7 6 6 6 7 7 6 6 6 7 7 7 8 8 7 7 8 8 8 8 8 8 8 8 8 8 8 8 8 7 7 8 9 9 9 9 8 8 8 10 10 10 10 11 12 14 16 16 17 19
3 3 3 3 3 3 2 2 2 2 3 3 3 3 4 5 5 5 5 5 6 6 6 6 7 7 8 9 11 12 12 11 11 10 10 9 8 7 7 7 8 7 7 7 7 7 7 7 8 8 8 8 8 9 8 8 8 9 9 9 9 9 8 8 7 7 7 8 9 10 9 9 8 7 7 7 7 7 7 7 8 9 10 9 11 14
3 3 3 4 3 3 2 2 3 3 3 3 4 4 4 5 5 5 5 5 6 6 7 7 7 7 7 8 9 11 11 10 9 9 9 8 7 7 8 8 8 8 7 7 7 7 7 8 8 9 9 8 8 8 8 8 9 9 10 9 8 8 8 8 8 8 7 8 8 9 9 8 8 8 8 7 7 7 7 6 7 7 8 7 7 8
4 3 3 3 3 3 3 3 3 3 3 4 4 4 4 4 4 4 4 5 5 5 5 6 6 6 7 7 8 9 10 9 9 9 8 8 9 9 8 8 8 8 8 8 7 7 8 8 9 9 9 9 9 10 10 10 11 11 12 10 9 9 10 10 10 9 8 8 8 8 9 9 9 9 8 9 8 8 8 8 8 8 8 7 7 6
4 4 3 3 3 3 3 3 4 4 4 4 4 4 4 3 4 4 4 4 4 4 4 4 5 6 6 7 7 7 8 8 8 9 9 10 10 10 10 9 8 8 8 8 8 8 8 9 9 9 9 9 9 9 9 10 10 11 11 11 11 11 11 11 9 7 8 8 8 8 10 9 9 9 9 9 9 8 8 9 9 10 10 8 7 7
4 3 3 3 3 3 4 4 4 4 4 4 4 4 4 3 4 4 4 4 4 5 5 5 5 5 6 6 6 6 6 6 7 8 9 9 9 10 10 10 9 8 8 8 8 8 9 9 9 9 9 8 9 9 11 10 10 10 10 10 10 10 8 7 7 6 7 8 9 9 9 9 9 9 9 9 9 8 8 9 11 12 11 9 8 8
3 3 3 3 3 3 4 4 3 4 4 4 4 4 4 4 4 5 5 4 5 5 5 5 5 5 6 7 7 6 6 5 6 7 7 8 8 8 8 9 9 9 9 8 8 8 8 9 9 9 8 8 9 9 10 10 10 10 10 10 10 10 9 8 9 9 9 9 9 9 9 9 9 9 9 9 8 8 7 8 8 9 10 9 9 9
3 3 3 3 3 3 3 4 4 4 4 4 4 4 4 5 5 5 4 4 5 5 5 5 4 5 5 6 6 6 6 5 5 5 5 7 9 10 9 8 8 9 9 8 8 8 8 8 9 8 8 8 9 10 10 10 11 11 11 11 11 11 11 11 10 11 10 10 10 9 9 8 8 9 9 8 8 8 8 8 8 8 8 8 8 9
3 3 3 3 3 4 4 4 4 4 4 4 5 5 5 5 4 4 5 5 5 5 5 4 4 5 5 6 6 6 6 5 5 5 5 5 6 7 7 8 8 8 8 8 8 9 9 9 9 9 8 9 9 10 10 10 10 10 10 10 10 11 11 11 11 10 10 11 10 10 10 9 8 8 8 9 9 8 8 8 9 9 8 8 8 9
3 3 4 4 4 4 4 4 4 4 4 5 5 5 5 4 4 4 4 5 5 5 5 5 5 5 6 6 6 6 6 7 6 6 5 5 6 6 6 6 7 8 7 8 8 9 9 9 9 9 9 9 10 10 10 10 10 10 10 10 10 10 10 10 10 10 10 10 10 10 9 8 8 8 9 9 9 9 8 8 8 8 8 8 8 8
4 4 4 4 4 4 4 4 4 4 5 5 5 5 4 4 5 5 4 5 5 5 5 5 5 6 7 7 7 7 7 8 7 7 6 6 6 6 6 6 6 7 7 8 8 9 9 10 10 10 10 10 11 11 11 10 10 10 10 10 10 10 11 10 10 9 10 10 11 10 8 7 8 8 9 9 9 9 8 8 8 8 8 8 8 8
4 4 4 4 4 4 4 4 4 5 5 5 5 5 4 5 6 6 5 5 5 5 5 5 6 6 7 7 7 7 8 8 7 7 7 6 6 6 6 6 6 6 6 7 7 8 8 9 11 11 11 11 11 12 12 11 10 10 10 10 10 10 10 10 10 9 9 10 10 9 7 7 7 8 8 9 10 10 10 9 9 8 7 7 8 8
4 4 4 4 4 4 5 5 5 5 5 5 5 5 5 5 5 5 5 5 5 5 5 6 6 7 7 7 7 7 8 7 7 7 7 6 6 6 6 6 6 6 6 6 6 6 6 7 8 10 12 13 13 12 11 11 11 10 10 9 9 9 9 9 9 8 8 9 10 9 8 7 7 7 7 8 10 11 11 10 9 8 7 7 7 8
4 4 4 4 4 4 5 5 5 5 5 5 6 6 6 5 5 5 5 5 5 6 6 6 6 7 7 8 8 8 8 7 7 7 7 6 6 6 6 6 6 6 6 6 5 5 5 5 6 7 9 12 14 13 10 10 10 10 10 9 8 8 8 8 8 8 9 9 9 9 8 8 8 7 7 7 9 10 11 10 10 9 7 7 7 8
Wind_Direction
129 142 161 180 192 205 221 227 231 236 239 242 247 252 256 258 259 261 265 269 273 275 277 278 280 283 286 288 289 288 288 287 286 286 286 287 287 288 288 288 287 287 288 288 287 287 287 286 286 285 285 284 283 283 283 282 282 282 282 282 283 284 285 285 286 287 287 287 288 288 289 290 290 291 292 292 292 292 291 290 289 288 287 287 286 286
124 134 155 187 198 211 229 232 233 235 237 240 244 250 256 264 267 268 268 270 272 274 277 280 283 285 287 288 288 288 288 287 287 287 287 287 287 287 287 287 287 287 288 288 288 287 287 286 285 285 284 283 283 282 282 282 281 281 282 282 283 284 285 285 286 287 287 288 288 289 290 290 290 291 291 291 290 290 289 288 287 286 286 286 285 285
149 160 175 192 199 207 220 230 233 236 237 243 249 257 266 270 271 271 271 273 274 275 277 280 283 286 287 288 288 288 288 288 288 288 287 287 287 286 287 287 287 287 288 288 287 287 286 286 285 284 283 283 282 282 282 281 281 282 282 282 283 284 284 285 286 287 287 288 288 289 289 289 289 289 289 289 288 288 287 287 286 286 285 285 284 284
159 173 183 190 198 204 212 222 227 231 234 242 253 261 266 268 269 270 273 276 278 279 279 281 284 287 288 290 290 289 288 288 288 287 287 286 286 286 286 287 287 287 288 288 287 287 286 286 285 284 284 283 283 282 282 282 282 282 282 283 283 284 284 285 286 286 287 287 288 288 288 288 288 288 288 287 287 286 286 285 285 284 284 283 283 282
165 178 187 191 197 203 210 218 223 225 227 238 248 255 259 262 266 271 274 277 279 280 282 284 287 290 291 291 289 288 287 287 287 287 286 286 286 286 286 286 287 287 287 287 287 286 286 286 285 285 284 284 283 283 283 283 283 283 283 283 283 284 284 285 285 286 286 287 287 287 287 286 286 286 285 285 284 284 283 283 283 282 282 281 281 280
180 187 192 195 198 206 216 224 229 231 233 238 245 252 258 262 267 271 274 276 279 282 285 288 290 289 289 287 286 286 287 287 287 287 287 286 286 286 286 287 287 287 287 287 287 287 286 286 286 285 285 284 284 283 283 283 283 283 283 284 284 284 285 285 285 286 286 286 286 285 285 284 284 283 282 282 282 281 281 281 281 281 280 280 280 279
199 202 200 201 205 215 226 231 233 235 238 243 247 254 259 262 265 267 272 278 284 288 290 289 287 286 285 285 286 287 288 289 289 288 288 287 287 287 288 288 289 289 289 288 288 287 287 286 285 285 284 284 283 283 283 283 283 283 284 284 284 285 285 285 286 286 285 285 284 284 283 282 282 281 280 280 280 280 280 279 279 279 279 279 279 278
215 222 216 211 211 218 225 226 228 232 242 254 264 269 272 272 274 275 278 283 285 286 286 285 284 283 284 287 289 291 291 291 290 289 288 288 289 289 290 290 290 290 289 289 288 287 285 285 284 283 282 282 282 282 282 283 283 284 284 285 285 285 285 285 285 285 285 284 283 282 282 281 280 279 279 279 278 278 278 278 278 278 278 278 278 278
219 228 228 223 220 224 233 233 235 247 274 277 280 284 287 289 289 288 286 282 277 275 278 283 286 288 289 292 293 293 291 289 288 287 287 287 287 288 289 289 289 289 288 287 286 285 284 283 283 282 281 281 281 282 282 283 284 284 285 285 285 285 285 285 284 284 283 283 282 281 281 280 279 278 278 278 277 277 277 277 277 277 277 277 278 278
218 224 229 228 226 225 235 251 262 274 276 274 275 277 281 284 286 286 285 279 276 275 282 290 293 295 295 294 292 290 289 288 287 286 285 284 283 283 284 286 286 287 287 287 286 285 285 284 284 284 283 283 283 283 284 284 285 285 285 285 285 284 284 283 283 282 282 282 281 281 280 280 279 278 278 277 277 277 276 276 276 277 277 278 278 279
216 216 219 224 225 222 223 244 254 258 253 258 258 258 255 259 268 277 284 287 291 296 298 295 295 295 296 295 293 291 290 288 286 285 284 283 283 284 285 286 287 287 288 289 289 289 289 288 288 287 286 286 285 285 285 286 286 285 285 284 283 282 282 282 281 281 281 282 281 281 281 280 280 280 279 278 278 278 278 278 278 278 278 278 279 279
217 213 206 215 227 240 243 253 252 248 241 242 244 245 242 241 254 277 292 298 302 303 300 295 290 288 290 293 294 294 291 289 286 284 282 283 285 287 289 290 291 292 293 294 294 293 292 292 291 290 289 288 287 286 286 285 284 284 283 282 282 281 281 281 282 282 282 283 283 282 282 282 281 281 280 280 280 280 280 279 279 279 278 278 278 278
214 211 208 219 237 251 259 258 252 242 234 236 243 252 261 269 287 298 299 297 296 295 294 292 291 289 289 290 292 293 291 289 288 288 288 288 290 292 295 297 297 298 298 297 296 294 293 293 292 291 290 289 287 286 285 284 283 283 282 282 282 282 283 283 284 284 284 284 284 284 283 283 283 282 282 281 281 280 280 279 279 279 278 278 278 277
213 213 210 224 235 243 246 248 250 251 249 256 273 295 314 318 312 301 289 285 284 287 292 296 299 300 297 294 290 289 289 290 292 293 294 295 297 300 302 301 301 299 298 295 293 291 292 293 292 291 289 288 286 285 284 283 283 283 284 284 285 285 285 285 285 285 285 285 285 284 284 284 283 283 282 281 281 280 280 279 279 279 278 278 278 277
218 218 224 234 240 244 247 254 263 274 290 309 317 319 311 299 289 282 278 282 289 298 307 307 305 303 299 295 292 290 291 294 296 298 300 300 301 304 305 302 300 298 295 292 290 290 291 291 289 287 285 284 283 283 283 283 285 286 286 287 287 287 286 286 286 286 285 285 285 284 284 284 283 283 282 282 281 281 281 280 280 280 279 279 278 278
227 229 237 248 255 262 271 286 298 306 310 309 300 288 280 277 277 280 288 299 308 316 316 310 306 302 296 294 294 296 297 300 301 303 303 302 302 304 305 303 299 296 293 290 289 288 288 286 283 281 280 281 283 284 285 286 287 288 288 288 288 287 287 286 286 286 286 285 285 285 285 284 284 284 283 283 283 282 282 281 281 280 280 279 278 278
245 250 257 269 277 285 295 300 299 295 290 284 277 273 273 283 297 309 314 318 319 315 308 306 305 303 301 301 301 302 305 307 307 307 306 302 300 300 302 301 297 294 290 287 286 285 284 281 280 279 279 282 284 286 287 288 288 288 288 288 288 287 287 287 287 287 287 287 287 287 286 286 286 285 285 285 284 283 283 282 281 281 280 279 278 278
257 265 277 283 286 287 287 283 279 276 277 284 291 301 311 321 326 327 320 314 306 302 299 299 297 297 299 301 304 307 311 312 312 309 305 299 295 296 299 297 292 288 286 283 281 280 280 280 279 280 282 286 287 288 288 288 288 288 288 288 289 289 289 289 290 290 289 289 289 288 288 287 287 286 286 285 284 284 283 282 282 281 280 279 278 277
273 280 281 278 275 271 269 269 275 287 303 321 332 334 329 329 326 319 306 297 292 291 291 290 288 287 289 290 294 300 309 313 313 308 301 295 293 294 296 291 286 283 282 282 282 282 281 280 281 283 285 287 288 288 289 289 290 290 291 291 292 292 292 292 292 291 291 290 290 289 288 288 287 286 286 285 285 284 283 282 281 281 280 279 278 278
264 259 256 258 262 267 271 279 303 335 348 354 351 339 323 317 307 297 288 283 281 281 283 282 281 281 282 285 291 299 312 315 312 303 294 290 289 290 292 289 287 285 283 281 281 281 281 280 282 284 286 287 288 290 291 292 293 293 294 294 294 294 294 293 293 292 292 291 290 290 289 288 288 287 286 285 285 284 283 282 281 281 280 280 279 279
269 261 258 269 279 290 297 321 344 356 1 4 354 329 306 296 286 279 275 275 274 274 273 272 274 276 281 286 292 300 309 307 301 295 290 287 286 287 288 285 283 281 281 281 280 281 282 282 283 284 287 290 292 293 294 295 296 296 296 296 296 295 295 295 294 293 293 292 291 290 290 289 288 287 286 286 285 284 283 282 282 282 281 281 281 280
284 287 301 316 322 323 325 335 341 344 348 349 327 296 285 281 279 278 279 278 276 274 272 274 278 283 288 289 291 292 295 291 287 286 286 284 283 282 283 279 278 279 280 282 284 285 285 286 287 289 292 294 295 296 296 297 297 297 297 297 296 296 296 295 295 294 293 292 291 290 289 289 288 288 287 287 286 285 285 284 284 283 283 282 282 282
289 299 312 323 328 331 333 332 329 326 322 305 284 275 274 278 281 283 284 281 281 282 283 286 288 287 285 283 282 281 279 273 271 272 276 277 279 281 282 282 281 281 281 284 288 290 292 292 293 294 295 296 296 297 297 297 297 297 297 297 296 296 295 294 294 293 292 291 291 290 290 289 289 289 288 288 288 287 287 286 285 285 284 283 283 282
303 304 307 312 319 322 314 297 289 284 280 272 269 270 270 271 272 273 274 278 283 286 289 288 285 280 276 274 273 273 269 265 262 262 267 272 276 281 285 288 287 285 284 287 291 296 297 295 295 294 295 296 297 297 297 297 297 296 296 295 295 294 294 293 293 293 292 292 291 291 291 291 290 290 290 289 288 288 287 286 286 285 284 283 282 281
312 306 299 289 277 269 263 260 257 255 250 251 255 261 267 272 277 281 285 285 285 284 283 280 278 275 274 273 273 273 271 267 262 261 263 271 277 281 286 290 289 288 287 290 294 297 298 296 296 296 295 296 296 296 296 295 295 295 294 294 294 295 295 295 294 294 294 293 293 293 292 292 291 290 290 289 289 288 287 286 285 284 284 283 282 281
294 289 283 279 275 272 271 269 267 266 265 264 265 269 276 283 287 288 287 282 279 277 276 274 274 274 276 277 277 277 276 271 264 260 261 272 279 283 286 287 286 286 288 291 296 298 298 297 297 297 296 294 294 294 293 294 294 295 295 296 296 297 297 297 296 296 295 294 293 293 292 291 291 290 289 289 288 287 287 286 285 284 284 283 282 281
281 280 279 279 279 279 278 277 276 275 274 273 272 273 275 279 279 276 271 270 271 271 272 272 274 276 279 279 277 276 278 277 273 269 270 276 280 282 283 284 286 288 291 293 296 299 299 297 296 295 293 290 290 290 291 293 295 296 298 298 299 299 298 297 297 296 295 294 293 292 292 291 290 290 289 288 288 287 287 286 286 285 285 284 283 281
269 272 273 275 276 278 278 277 276 275 274 273 272 271 271 270 267 266 264 266 268 269 268 270 273 277 280 279 279 280 285 283 279 274 271 271 271 274 279 284 289 292 295 296 297 297 295 292 290 288 286 285 285 287 291 296 298 299 300 300 299 299 298 297 296 295 294 294 293 292 292 291 290 290 289 288 288 287 287 287 287 286 286 285 283 280
255 259 261 264 267 270 272 272 273 272 271 270 270 269 267 264 261 260 262 265 267 266 265 266 268 272 277 281 284 285 283 274 265 257 254 258 263 269 279 288 293 298 303 302 300 295 289 284 282 282 283 285 288 292 296 301 302 301 300 299 298 297 297 296 296 295 294 294 293 293 292 291 290 290 289 288 288 288 287 288 288 287 286 284 281 278
264 260 258 259 262 264 265 266 267 268 268 269 268 267 264 259 256 257 260 261 261 261 262 264 267 270 276 283 287 284 275 264 255 250 250 261 268 276 288 293 298 303 309 308 304 298 290 284 280 280 285 292 297 300 302 302 300 298 296 296 296 296 295 295 295 295 295 294 294 293 292 292 291 290 290 289 289 288 288 288 288 288 286 283 279 277
284 279 274 270 268 267 265 263 263 265 267 268 267 265 259 252 249 250 252 252 253 255 258 262 266 268 271 277 279 278 274 273 294 314 323 296 286 287 296 297 298 300 305 306 304 301 298 295 291 291 296 300 301 300 297 295 294 293 292 293 293 294 294 295 295 295 295 294 294 294 293 293 292 292 291 290 290 289 289 288 288 287 284 280 277 275
286 285 283 281 279 275 270 266 263 261 261 261 259 254 247 243 242 243 245 248 249 253 257 261 263 265 265 263 264 266 271 284 311 323 326 307 293 289 293 292 293 294 297 292 289 290 295 297 300 302 303 299 296 293 291 291 290 291 291 292 292 292 294 295 296 296 295 295 295 295 295 294 294 293 292 291 290 289 288 288 287 285 282 278 275 272
281 281 280 278 276 271 266 260 255 251 250 252 251 248 245 244 244 246 249 250 252 254 257 260 262 263 263 261 260 262 266 274 290 299 300 293 287 285 288 288 290 292 294 287 279 276 278 287 294 298 298 293 291 291 291 291 291 290 290 291 291 292 295 296 296 296 296 296 296 296 296 295 294 293 292 291 290 289 287 287 285 283 280 276 272 270
278 277 275 273 269 266 261 257 253 252 252 255 255 254 253 252 253 254 256 256 256 256 256 257 260 263 265 265 265 265 266 269 277 284 288 286 284 286 290 290 291 292 294 289 283 278 276 281 287 293 294 293 291 291 292 293 293 292 290 290 291 292 295 297 297 297 296 297 296 295 294 293 292 291 290 289 288 287 286 285 284 282 281 278 274 271
278 275 273 270 269 267 265 262 259 257 257 259 261 262 262 261 260 259 258 257 256 255 255 256 257 260 262 264 266 268 269 271 278 284 289 290 292 292 291 288 288 290 290 287 286 285 283 283 286 289 294 295 294 292 291 291 292 292 291 291 292 293 295 297 298 297 296 294 292 290 289 288 287 287 286 286 286 285 285 285 284 283 282 280 277 274
277 275 275 275 274 274 271 269 268 267 266 267 270 271 272 271 267 265 262 260 259 259 258 258 259 259 259 262 264 267 270 275 281 286 288 290 291 289 286 283 284 286 286 285 284 283 284 285 287 288 290 291 292 292 291 291 292 294 294 295 295 295 294 294 294 294 293 291 289 287 284 283 282 281 282 284 285 285 285 285 285 284 282 281 279 276
277 279 281 281 279 277 275 275 277 278 278 280 280 281 280 277 275 273 270 267 266 265 265 264 262 260 257 258 260 263 268 272 275 277 278 279 280 279 277 278 279 279 279 279 281 282 283 285 286 286 285 284 287 292 297 300 300 298 296 296 296 294 293 292 290 289 287 285 284 283 282 282 281 281 282 284 285 286 286 285 284 283 281 280 278 277
279 284 286 283 280 277 277 281 282 283 284 285 286 285 283 280 278 276 274 270 267 264 263 262 261 260 258 258 258 260 264 267 268 269 268 269 268 268 269 272 272 271 268 270 273 276 278 281 284 286 285 284 285 288 295 299 300 298 296 295 293 291 289 288 286 285 283 283 283 283 284 283 283 283 283 283 283 283 282 281 279 279 279 278 277 276
280 282 281 281 280 281 283 284 285 286 288 288 288 286 283 279 275 273 270 268 266 263 261 260 261 261 259 258 259 261 263 263 263 261 260 258 257 258 261 265 266 266 264 263 263 265 268 271 275 279 284 286 288 289 291 292 293 294 296 295 292 288 285 286 286 286 285 286 286 286 285 283 281 280 278 278 277 276 275 274 273 272 274 274 275 275
279 278 277 279 282 286 289 289 291 293 294 292 288 284 279 276 275 274 272 271 269 268 266 265 265 265 264 263 263 263 263 261 259 257 255 250 247 248 252 257 261 263 263 260 258 258 259 263 267 271 275 280 284 287 289 288 289 291 295 296 294 292 291 291 290 289 287 285 284 284 283 280 277 275 275 274 273 272 271 271 271 270 270 270 272 274
278 277 276 281 287 294 297 297 297 297 295 289 284 280 277 278 280 280 277 274 271 270 270 269 269 268 267 264 263 262 262 260 257 255 252 245 241 240 244 249 254 258 260 259 257 255 255 259 264 268 270 274 278 281 282 283 285 288 290 289 288 289 292 291 289 287 285 282 280 279 280 281 280 279 277 276 273 271 270 270 271 271 270 267 266 266
280 280 282 291 301 307 306 302 298 293 287 283 280 279 281 283 282 281 280 280 279 278 277 276 276 275 274 271 267 263 260 258 256 253 251 244 238 236 238 242 246 251 254 257 258 257 256 258 261 265 268 271 275 278 279 280 281 282 282 282 285 289 290 287 285 284 284 283 282 281 282 282 281 280 277 275 273 271 268 267 267 267 268 265 262 260
281 285 296 305 307 305 301 296 292 288 284 283 282 283 283 282 281 281 283 283 283 282 281 279 278 278 279 278 276 273 267 261 259 257 255 248 241 237 237 240 242 245 249 255 258 260 259 258 260 262 265 268 270 273 277 280 281 280 277 280 284 288 290 288 287 287 285 283 282 281 279 278 276 275 273 272 271 270 268 266 265 265 264 264 262 260
285 296 308 305 298 293 289 288 288 290 292 291 289 287 284 282 281 281 280 280 280 280 279 278 279 279 279 280 281 281 279 273 267 264 265 264 257 250 248 246 246 246 246 250 256 261 265 263 262 262 264 266 267 269 273 276 278 279 278 278 278 277 276 282 287 288 284 281 278 275 273 272 272 272 272 271 269 268 266 265 263 262 261 260 260 260
300 309 305 295 289 287 286 289 292 293 293 289 286 284 283 280 277 276 275 277 279 281 280 282 283 283 280 281 283 285 286 285 282 277 274 272 270 267 263 258 255 252 249 248 251 255 262 266 268 268 267 266 265 266 269 273 276 277 276 275 274 272 271 275 278 280 280 278 276 274 271 271 272 274 273 271 270 267 266 265 264 263 261 258 257 257
302 297 290 287 287 289 291 293 293 290 287 283 282 280 278 274 272 271 272 275 279 280 281 281 280 280 280 284 287 289 289 288 286 283 279 275 271 267 264 262 260 258 255 253 251 252 254 260 266 271 273 271 268 265 264 268 272 274 275 275 274 273 273 273 273 273 274 275 276 275 274 273 274 274 273 272 270 268 266 264 263 263 262 259 257 255
293 288 287 288 289 289 289 290 289 287 285 283 282 279 277 274 273 272 272 273 275 277 277 277 275 275 277 282 285 287 287 287 287 286 284 282 280 276 272 269 265 263 260 259 257 255 255 256 260 264 270 272 272 270 267 267 268 270 273 273 273 272 272 271 271 271 272 273 275 276 276 276 275 273 272 272 272 271 269 267 264 263 262 260 259 257
287 286 286 286 286 286 286 287 287 286 285 284 283 282 281 281 281 281 279 278 278 279 280 279 277 275 276 277 278 280 283 285 287 288 287 286 285 283 279 277 274 270 267 265 263 262 260 258 258 258 260 265 269 271 272 270 268 268 269 271 271 271 271 271 272 272 273 273 273 274 275 274 274 274 276 276 276 275 274 272 270 266 263 262 260 259
282 282 282 282 283 284 286 288 288 288 287 289 289 289 290 291 291 290 288 286 283 280 278 277 277 277 277 277 278 279 280 282 284 285 286 287 287 286 284 282 280 278 275 271 268 266 265 262 257 254 252 255 260 265 270 269 268 267 268 268 268 269 271 272 273 273 274 275 275 274 273 273 273 275 278 280 280 279 279 277 275 271 267 264 262 261
279 278 279 280 282 284 287 290 291 291 292 294 295 296 296 295 292 290 285 282 278 275 272 272 273 275 277 278 279 279 280 281 282 283 284 286 287 287 286 284 284 283 282 278 274 272 271 267 260 253 247 246 249 255 264 267 268 268 267 266 267 269 272 274 276 277 279 280 281 281 280 279 279 279 280 280 280 281 281 280 278 275 272 268 265 263
278 277 278 280 283 285 288 289 290 290 291 293 293 294 293 290 287 283 280 276 273 272 270 269 269 271 273 276 277 279 279 281 282 282 282 284 284 285 284 285 285 286 285 284 282 280 278 278 274 266 254 247 245 246 255 263 268 271 271 270 270 273 276 278 280 282 284 285 286 287 286 285 283 281 279 279 280 281 282 282 281 279 276 274 271 269